User: anonymous   Login
Location: Ville-Marie
(47.3330°N, 79.4330°W)
Time: 11:25:27
(UTC-04:00)
Language:

ISS - Orbit

View from above orbital plane
View from above orbital plane
View from above satellite
View from above satellite

Ground track
Ground track

The orbit data is extracted from the following two-line orbital elements,

1 25544U 98067A   21138.56586175  .00001435  00000-0  34181-4 0  9992
2 25544  51.6434 129.2334 0003126  16.0220 146.6773 15.49019113284004
Epoch (UTC): 18 May 2021 13:34:50
Eccentricity: 0.0003126
inclination: 51.6434°
perigee height: 417 km
apogee height: 422 km
right ascension of ascending node: 129.2334°
argument of perigee: 16.0220°
revolutions per day: 15.49019113
mean anomaly at epoch: 146.6773°
orbit number at epoch: 28400

The dashed part of the orbit path shows where the satellite is in the earth's shadow,  

DLR